[Iaude] MPEC T25: 2016 TQ [a=1.38,e=0.25,i=55.0,H=23.6]

mpec at si.edu mpec at si.edu
Mon Oct 3 09:37:43 EDT 2016


M.P.E.C. 2016-T25                                Issued 2016 Oct. 3, 13:34 UT
 
     The Minor Planet Electronic Circulars contain information on unusual
         minor planets and routine data on comets.  They are published
    on behalf of Division F of the International Astronomical Union by the
          Minor Planet Center, Smithsonian Astrophysical Observatory,
                          Cambridge, MA 02138, U.S.A.

             Prepared using the Tamkin Foundation Computer Network

                              MPC at CFA.HARVARD.EDU
            URL http://www.minorplanetcenter.net/    ISSN 1523-6714


                                    2016 TQ
 
Observations:
     K16T00Q* C2016 10 02.22595 00 24 05.43 +03 11 50.7          17.5 VqET025703
     K16T00Q  C2016 10 02.23195 00 24 05.14 +03 05 27.8          18.2 VqET025703
     K16T00Q  C2016 10 02.23795 00 24 04.99 +02 59 05.8          17.5 VqET025703
     K16T00Q  C2016 10 02.24395 00 24 04.83 +02 52 44.2          17.4 VqET025703
     K16T00Q  C2016 10 02.26929 00 24 03.99 +02 25 53.9          17.7 VqET025I52
     K16T00Q  C2016 10 02.27102 00 24 03.92 +02 24 03.6          17.8 VqET025I52
     K16T00Q  C2016 10 02.27121 00 24 03.91 +02 23 52.0          17.6 VqET025I52
     K16T00Q  C2016 10 02.27126000 24 03.33 +02 23 44.6          17.8 VtET025H01
     K16T00Q  C2016 10 02.27140 00 24 03.91 +02 23 39.7          17.7 VqET025I52
     K16T00Q  C2016 10 02.27758400 24 03.12 +02 17 03.2          17.8 VtET025H01
     K16T00Q  C2016 10 02.28536100 24 02.85 +02 08 49.4          17.8 VtET025H01
     K16T00Q  C2016 10 02.29207300 24 02.61 +02 01 43.4          17.7 VtET025H01
     K16T00Q  C2016 10 02.34105 00 24 01.43 +01 10 07.8          17.5 VqET025703
     K16T00Q  C2016 10 02.34155 00 24 01.41 +01 09 35.9          17.6 VqET025703
     K16T00Q  C2016 10 02.34205 00 24 01.39 +01 09 05.2          18.2 VqET025703
     K16T00Q  C2016 10 02.34255 00 24 01.39 +01 08 33.3          17.6 VqET025703
     K16T00Q  C2016 10 02.43798000 24 09.82 -00 28 08.2          17.3 RtET025474
     K16T00Q  C2016 10 02.44088500 24 09.76 -00 31 10.5          17.3 RtET025474
     K16T00Q  C2016 10 02.44158000 24 09.72 -00 31 53.9          17.9 RtET025474
     K16T00Q  C2016 10 02.44192700 24 09.71 -00 32 15.6          17.2 RtET025474
     K16T00Q  C2016 10 02.44262200 24 09.67 -00 32 59.0          17.1 RtET025474
     K16T00Q  C2016 10 02.59632500 24 05.83 -03 11 48.2          17.5 RtET025474
     K16T00Q  C2016 10 02.59759800 24 05.79 -03 13 06.3          17.4 RtET025474
     K16T00Q  C2016 10 02.59864000 24 05.75 -03 14 10.3          17.7 RtET025474
     K16T00Q  C2016 10 02.59968200 24 05.78 -03 15 14.3          17.5 RtET025474
     K16T00Q  C2016 10 02.60037600 24 05.75 -03 15 56.8          17.4 RtET025474
     K16T00Q KC2016 10 02.94037 00 24 19.40 -08 58 30.5          18.1 VqET025958
     K16T00Q KC2016 10 02.94244 00 24 19.31 -09 00 30.9          18.5 VqET025958
     K16T00Q KC2016 10 02.94252 00 24 19.08 -09 00 45.5                qET025J95
     K16T00Q KC2016 10 02.94450 00 24 19.26 -09 02 30.6          18.2 VqET025958
     K16T00Q KC2016 10 02.94457 00 24 19.06 -09 02 44.4                qET025J95
     K16T00Q KC2016 10 02.94660 00 24 19.01 -09 04 42.7          18.0 RqET025J95
     K16T00Q KC2016 10 03.00134 00 24 14.31 -09 57 15.7          17.8 RqET025585
     K16T00Q KC2016 10 03.00143 00 24 14.36 -09 57 20.6          17.7 RqET025585
     K16T00Q KC2016 10 03.00162 00 24 14.29 -09 57 32.5          18.0 RqET025585
     K16T00Q KC2016 10 03.06848 00 24 15.24 -11 00 57.8                qET025204
     K16T00Q KC2016 10 03.07059 00 24 15.16 -11 02 56.5                qET025204
     K16T00Q KC2016 10 03.07325 00 24 15.13 -11 05 27.5          17.9 RqET025204
     K16T00Q KC2016 10 03.51815 00 24 28.75 -17 41 36.9          18.1 RtET025474
     K16T00Q KC2016 10 03.51854 00 24 28.73 -17 41 56.8          18.1 RtET025474
     K16T00Q KC2016 10 03.51893 00 24 28.73 -17 42 16.8          18.1 RtET025474
     K16T00Q KC2016 10 03.51952 00 24 28.72 -17 42 46.6          18.3 RtET025474
     K16T00Q KC2016 10 03.51991 00 24 28.72 -17 43 06.7          18.2 RtET025474
 
Observer details:
204 Schiaparelli Observatory.  Observer L. Buzzi.  0.60-m f/4.64 reflector
    + CCD.
474 Mount John Observatory, Lake Tekapo.  Observers A. C. Gilmore,
    P. M. Kilmartin.  Measurer P. M. Kilmartin.  1.0-m f/7.7 reflector + CCD.
585 Kyiv comet station.  Observers A. Baransky, Y. Kalinina, B. Petrenko.
    0.7-m f/4 reflector + CCD.
703 Catalina Sky Survey.  Observer R. A. Kowalski.  Measurers
    E. J. Christensen, D. C. Fuls, A. R. Gibbs, A. D. Grauer, J. A. Johnson,
    R. A. Kowalski, S. M. Larson, G. J. Leonard, R. G. Matheny, R. L. Seaman,
    F. C. Shelly.  0.68-m Schmidt + CCD.
958 Observatoire de Dax.  Observers P. Dupouy, J. B. de Vanssay.  Measurer
    P. Dupouy.  0.43-m f/2.7 reflector + CCD.
H01 Magdalena Ridge Observatory, Socorro.  Observers W. H. Ryan, E. V. Ryan.
    Measurer W. H. Ryan.  2.4-m f/8.9 reflector + CCD.
I52 Steward Observatory, Mt. Lemmon Station.  Observer G. J. Leonard.
    Measurers E. J. Christensen, D. C. Fuls, A. R. Gibbs, A. D. Grauer,
    J. A. Johnson, R. A. Kowalski, S. M. Larson, G. J. Leonard, R. G. Matheny,
    R. L. Seaman, F. C. Shelly.  1.0-m reflector + CCD.
J95 Great Shefford.  Observer P. Birtwhistle.  0.40-m f/6.0 Schmidt-Cassegrain
    + CCD.
 
Orbital elements:
2016 TQ                                                  Earth MOID = 0.0528 AU
Epoch 2016 July 31.0 TT = JDT 2457600.5                 MPC
M 333.92123              (2000.0)            P               Q
n   0.60717417     Peri.  159.13481     +0.95495827     +0.26680162
a   1.3812126      Node   189.11950     -0.16511848     +0.84146719
e   0.2464706      Incl.   55.03781     +0.24655749     -0.46984026
P   1.62           H   23.6           G   0.15           U   7
Residuals in seconds of arc
161002 703  0.2+  0.2-    161002 703  0.0   0.9+    161002 J95  0.5+  0.1+
161002 703  1.3-  0.9-    161002 474  0.3+  0.3+    161002 J95  0.3+  0.4-
161002 703  0.7-  0.9-    161002 474  0.3+  0.2-    161003 585  1.5-  0.9+
161002 703  0.1-  0.6-    161002 474  0.0   0.2-    161003 585  0.7-  1.2+
161002 I52  0.3+  0.3+    161002 474  0.1-  0.2-    161003 585 (1.7-  0.2+)
161002 I52  0.1+  0.1-    161002 474  0.4-  0.1-    161003 204  0.2+  0.4-
161002 I52  0.1+  0.4+    161002 474  0.0   0.2-    161003 204  0.5-  0.2+
161002 H01  0.2+  0.1-    161002 474  0.2-  0.2-    161003 204  0.4-  0.5-
161002 I52  0.2+  0.2+    161002 474  0.5-  0.2-    161003 474  0.2-  0.0
161002 H01  0.4+  0.2+    161002 474  0.3+  0.3-    161003 474  0.3-  0.0
161002 H01  0.4+  0.0     161002 474  0.0   0.2-    161003 474  0.2-  0.1-
161002 H01  0.3+  0.2-    161002 958 (0.5+  1.7-)   161003 474  0.1-  0.2+
161002 703  0.2-  0.7+    161002 958 (0.1-  1.9-)   161003 474  0.1+  0.0
161002 703  0.2-  0.4+    161002 J95  0.2+  0.0
161002 703  0.3-  1.3+    161002 958 (0.0   1.9-)

Ephemeris:
2016 TQ                  a,e,i = 1.38, 0.25, 55                  q = 1.0408
Date    TT    R. A. (2000) Decl.     Delta      r     Elong.  Phase     V
2016 09 03    13 28 58.3 +88 13 24   0.4657  1.0435    81.1    72.8    24.6
...
2016 09 18    00 05 56.6 +85 35 25   0.2356  1.0420    92.5    74.4    23.2
...
2016 09 26    00 20 41.7 +70 27 15   0.1117  1.0474   110.8    63.5    21.2
...
2016 10 02    00 23 56.5 +07 15 16   0.05337 1.0541   175.7     4.1    17.7
2016 10 03    00 24 18.4 -09 53 03   0.05649 1.0555   165.8    13.4    18.3
2016 10 04    00 24 38.9 -24 06 34   0.06396 1.0569   151.3    27.0    19.0
...
2016 10 10    00 26 30.4 -58 44 56   0.1454  1.0665   114.2    58.6    21.7
...
2016 10 18    00 29 15.1 -68 25 08   0.2721  1.0825   101.2    64.5    23.2
...
2016 11 02    00 37 06.9 -72 19 16   0.5047  1.1207    91.0    62.3    24.6

A. U. Tomatic                (C) Copyright 2016 MPC           M.P.E.C. 2016-T25




More information about the Iaude mailing list